DW8750 Weather Reports


Display with metric or nautical units.
time (UTC)temp
F
wind
direction
speed
MPH
gust
MPH
rain 1hr
in
rain 24hr
in
rain mn
in
humidity
%
barometer
mb
20260508212538 66 180 1.0 3.0 0.00 0.00 0.00 73 1016.0
20260508211539 66 180 1.0 4.0 0.00 0.00 0.00 72 1016.0
20260508210539 66 180 2.0 4.0 0.00 0.00 0.00 72 1016.2
20260508205541 66 209 2.0 4.0 0.00 0.00 0.00 72 1016.1
20260508202538 66 197 2.0 4.0 0.00 0.00 0.00 73 1016.1
20260508201537 67 211 2.0 4.0 0.00 0.00 0.00 72 1016.0
20260508195537 67 190 1.0 3.0 0.00 0.00 0.00 72 1015.9
20260508194540 67 187 0.0 2.0 0.00 0.00 0.00 71 1015.8
20260508193537 67 187 0.0 2.0 0.00 0.00 0.00 72 1015.7
20260508192535 68 329 0.0 2.0 0.00 0.00 0.00 78 1015.7
20260508190534 68 329 1.0 4.0 0.00 0.00 0.00 75 1015.4
20260508184534 68 342 1.0 4.0 0.00 0.00 0.00 71 1014.9
20260508183536 68 329 2.0 4.0 0.00 0.00 0.00 70 1014.9
20260508182534 68 299 2.0 4.0 0.00 0.00 0.00 70 1014.8
20260508180537 68 297 4.0 7.0 0.00 0.00 0.00 69 1014.6
20260508175534 68 310 4.0 8.0 0.00 0.00 0.00 68 1014.5
20260508174534 69 294 5.0 8.0 0.00 0.00 0.00 68 1014.5
20260508173534 69 303 4.0 8.0 0.00 0.00 0.00 66 1014.3
20260508172534 69 284 5.0 8.0 0.00 0.00 0.00 65 1014.2
20260508171534 69 292 4.0 8.0 0.00 0.00 0.00 63 1014.2
20260508170535 70 288 4.0 7.0 0.00 0.00 0.00 64 1014.1
20260508165536 70 269 4.0 7.0 0.00 0.00 0.00 60 1014.0
20260508164534 70 290 4.0 7.0 0.00 0.00 0.00 59 1013.9
20260508163534 70 347 5.0 8.0 0.00 0.00 0.00 59 1013.8
20260508162536 70 252 4.0 6.0 0.00 0.00 0.00 59 1013.9
20260508161534 70 275 2.0 5.0 0.00 0.00 0.00 60 1013.9
20260508160532 70 355 2.0 6.0 0.00 0.00 0.00 57 1014.0
20260508155534 71 277 5.0 8.0 0.00 0.00 0.00 59 1014.0
20260508152532 71 331 2.0 9.0 0.00 0.00 0.00 62 1014.0
20260508151534 71 347 1.0 4.0 0.00 0.00 0.00 64 1013.9
20260508150531 71 5 3.0 6.0 0.00 0.00 0.00 65 1013.9
20260508145535 71 344 4.0 7.0 0.00 0.00 0.00 64 1013.8
20260508144530 72 288 2.0 9.0 0.00 0.00 0.00 63 1013.8
20260508142528 71 0 4.0 11.0 0.00 0.00 0.00 64 1013.7
20260508140528 73 338 3.0 8.0 0.00 0.00 0.00 65 1013.6
20260508135527 72 325 4.0 11.0 0.00 0.00 0.00 65 1013.5
20260508133528 72 31 5.0 11.0 0.00 0.00 0.00 66 1013.6
20260508131525 73 0 5.0 10.0 0.00 0.00 0.00 64 1013.5
20260508130525 74 285 4.0 8.0 0.00 0.00 0.00 64 1013.3
20260508125525 74 269 3.0 10.0 0.00 0.00 0.00 64 1013.4
20260508124526 73 0 5.0 13.0 0.00 0.00 0.00 64 1013.4
20260508122528 73 290 7.0 12.0 0.00 0.00 0.00 63 1013.4
20260508114524 74 5 6.0 12.0 0.00 0.00 0.00 58 1013.0
20260508113526 73 355 7.0 12.0 0.00 0.00 0.00 59 1013.0
20260508112523 73 333 7.0 14.0 0.00 0.00 0.00 60 1013.0
20260508111527 73 5 7.0 13.0 0.00 0.00 0.00 58 1013.0
20260508110524 74 317 7.0 12.0 0.00 0.00 0.00 58 1012.9
20260508104525 73 299 4.0 11.0 0.00 0.00 0.00 60 1013.0
20260508103523 73 331 5.0 10.0 0.00 0.00 0.00 61 1013.1
20260508102524 73 343 4.0 11.0 0.00 0.00 0.00 63 1013.1
20260508101525 72 26 7.0 11.0 0.00 0.00 0.00 64 1013.1
20260508100523 72 345 6.0 12.0 0.00 0.00 0.00 66 1013.1
20260508095525 71 336 8.0 12.0 0.00 0.00 0.00 67 1013.2
20260508094523 71 343 8.0 13.0 0.00 0.00 0.00 65 1013.3
20260508093525 71 350 6.0 12.0 0.00 0.00 0.00 65 1013.1
20260508092523 71 15 8.0 12.0 0.00 0.00 0.00 67 1012.9
20260508091524 71 12 7.0 11.0 0.00 0.00 0.00 66 1012.7
20260508090530 71 0 7.0 12.0 0.00 0.00 0.00 66 1012.6
20260508085527 71 5 7.0 10.0 0.00 0.00 0.00 67 1012.5
20260508084529 71 5 5.0 9.0 0.00 0.00 0.00 68 1012.5
20260508083521 71 22 6.0 10.0 0.00 0.00 0.00 67 1012.4
20260508082522 71 325 6.0 12.0 0.00 0.00 0.00 68 1012.4
20260508081521 71 318 6.0 11.0 0.00 0.00 0.00 68 1012.3
20260508080523 71 313 6.0 10.0 0.00 0.00 0.00 66 1012.2
20260508075521 71 321 5.0 9.0 0.00 0.00 0.00 66 1012.3
20260508074522 71 5 5.0 9.0 0.00 0.00 0.00 65 1012.2
20260508073523 72 288 3.0 7.0 0.00 0.00 0.00 66 1012.2
20260508072522 71 336 2.0 5.0 0.00 0.00 0.00 66 1012.1
20260508071521 70 293 2.0 5.0 0.00 0.00 0.00 67 1012.2
20260508065523 69 266 1.0 4.0 0.00 0.00 0.00 69 1012.2
20260508064520 69 326 1.0 3.0 0.00 0.00 0.00 69 1012.0
20260508063521 69 355 1.0 3.0 0.00 0.00 0.00 71 1012.0
20260508061522 68 355 0.0 1.0 0.00 0.00 0.00 70 1011.9
20260508060522 68 355 1.0 3.0 0.00 0.00 0.00 71 1011.7
20260508055518 67 197 0.0 0.0 0.00 0.00 0.00 71 1011.6
20260508054519 67 197 0.0 0.0 0.00 0.00 0.00 72 1011.5
20260508053521 66 197 0.0 2.0 0.00 0.00 0.00 72 1011.5
20260508052517 65 197 2.0 5.0 0.00 0.00 0.00 73 1011.3
20260508051512 65 198 0.0 1.0 0.00 0.00 0.00 74 1011.2
20260508050511 65 198 1.0 3.0 0.00 0.00 0.00 74 1011.1
20260508044508 64 177 2.0 5.0 0.00 0.00 0.00 74 1010.8
20260508043515 64 202 1.0 4.0 0.00 0.00 0.00 75 1010.7
20260508042507 64 202 2.0 4.0 0.00 0.00 0.00 74 1010.7
20260508041508 65 202 1.0 3.0 0.00 0.00 0.00 74 1010.6
20260508040506 65 202 1.0 3.0 0.00 0.00 0.00 73 1010.6
20260508035506 65 202 0.0 1.0 0.00 0.00 0.00 72 1010.3
20260508034508 65 202 2.0 6.0 0.00 0.00 0.00 72 1010.2
20260508033506 66 215 3.0 5.0 0.00 0.00 0.00 72 1010.2
20260508032507 66 201 2.0 4.0 0.00 0.00 0.00 72 1010.2
20260508031506 66 201 3.0 4.0 0.00 0.00 0.00 71 1010.0
20260508030508 66 228 3.0 4.0 0.00 0.00 0.00 71 1010.0
20260508025503 66 219 3.0 6.0 0.00 0.00 0.00 71 1010.0
20260508024500 67 196 3.0 5.0 0.00 0.00 0.00 70 1009.8
20260508023502 67 230 2.0 4.0 0.00 0.00 0.00 70 1009.9
20260508022500 67 267 3.0 7.0 0.00 0.00 0.00 70 1009.9
20260508021500 67 239 2.0 5.0 0.00 0.00 0.00 70 1009.7
20260508020506 67 274 2.0 4.0 0.00 0.00 0.00 70 1009.6
20260508015504 67 192 3.0 6.0 0.00 0.00 0.00 70 1009.6
20260508014458 67 218 2.0 4.0 0.00 0.00 0.00 70 1009.5
20260508013458 66 251 1.0 5.0 0.00 0.00 0.00 70 1009.4
20260508012458 66 86 0.0 3.0 0.00 0.00 0.00 71 1009.4
20260508011458 67 86 0.0 0.0 0.00 0.00 0.00 71 1009.7
20260508010456 67 86 0.0 0.0 0.00 0.00 0.00 71 1009.6
20260508005456 67 86 0.0 2.0 0.00 0.00 0.00 71 1009.6
20260508004459 67 86 1.0 3.0 0.00 0.00 0.00 70 1009.4
20260508003452 68 120 2.0 6.0 0.00 0.00 0.00 68 1009.8
20260508002453 68 144 4.0 9.0 0.00 0.00 0.00 67 1009.9
20260508001450 67 207 3.0 9.0 0.00 0.00 0.00 68 1010.5
20260508000450 67 207 1.0 6.0 0.00 0.00 0.00 69 1010.1
20260507235450 67 239 2.0 9.0 0.00 0.00 0.00 69 1010.1
20260507234449 67 171 2.0 4.0 0.00 0.00 0.00 70 1010.3
20260507233448 67 146 1.0 4.0 0.00 0.00 0.00 70 1010.5
20260507232448 67 146 1.0 5.0 0.00 0.00 0.00 70 1010.8
20260507231448 67 215 0.0 1.0 0.00 0.00 0.00 70 1011.1
20260507230447 67 215 0.0 0.0 0.00 0.00 0.00 69 1010.8
20260507225448 67 215 0.0 0.0 0.00 0.00 0.00 70 1010.4
20260507223445 67 215 1.0 3.0 0.00 0.00 0.00 69 1010.5
20260507222447 67 192 1.0 5.0 0.00 0.00 0.00 70 1010.4
20260507221446 68 205 1.0 3.0 0.00 0.00 0.00 69 1010.5
20260507215438 67 238 3.0 7.0 0.00 0.00 0.00 70 1010.8
20260507214442 67 298 6.0 9.0 0.00 0.00 0.00 72 1010.9